Regional Weather Roundup
Issued by NWS Upton, NY

Home | Current Version | Previous Version | Text Only | Print | Product List | Glossary On
Versions: 1 2 3 4 5 6 7 8 9 10 11 12 13 14 15 16 17 18 19 20 21 22 23 24 25 26 27 28 29 30 31 32 33 34 35 36 37 38 39 40 41 42 43 44 45 46 47 48 49 50
000
ASUS41 KOKX 032118
RWROKX

REGIONAL WEATHER ROUNDUP
NATIONAL WEATHER SERVICE NEW YORK NY
500 PM EDT FRI JUL 03 2015

NOTE: "FAIR" INDICATES FEW OR NO CLOUDS BELOW 12,000 FEET WITH NO
SIGNIFICANT WEATHER AND/OR OBSTRUCTIONS TO VISIBILITY.

NYZ071-072-176-178-NJZ106-104-032200-
NEW YORK CITY METRO AREA


CITY           SKY/WX    TMP DP  RH WIND       PRES   REMARKS
CENTRAL PARK   MOSUNNY   79  53  40 CALM      29.98F
LAGUARDIA APRT PTSUNNY   80  50  34 NE9       29.95S
KENNEDY INTL   PTSUNNY   77  57  50 S13       29.97S
NEWARK/LIBERTY PTSUNNY   82  53  36 W9        29.95S
BRNX BOT. GARD   N/A     77  57  50 E5        29.96F
TETERBORO      PTSUNNY   81  50  33 SW8       29.94F
$$

NYZ177-179-078>081-032200-
LONG ISLAND NEW YORK

CITY           SKY/WX    TMP DP  RH WIND       PRES   REMARKS
FARMINGDALE    PTSUNNY   76  54  46 S7        29.97S
ISLIP          PTSUNNY   78  48  34 NE3       29.96S
SHIRLEY        PTSUNNY   74  59  59 S12       29.99S
WESTHAMPTON    MOSUNNY   73  55  53 S6        30.00S
MONTAUK POINT    N/A     74  57  55 VRB5      30.00S
$$

NYZ052-065-067-032200-
HUDSON VALLEY

CITY           SKY/WX    TMP DP  RH WIND       PRES   REMARKS
WHITE PLAINS   MOSUNNY   77  49  37 NW6       29.97S
NEWBURGH       MOSUNNY   77  54  44 W7        29.99F
MONTGOMERY     SUNNY     77  55  46 VRB3      29.96F
POUGHKEEPSIE   SUNNY     79  50  36 CALM      29.96F
ALBANY         MOSUNNY   77  46  33 CALM      29.96F
$$

NJZ001-105-106-008-010-013-015-019>022-104-032200-
NEW JERSEY

CITY           SKY/WX    TMP DP  RH WIND       PRES   REMARKS
NEWARK/LIBERTY PTSUNNY   82  53  36 W9        29.95S
TETERBORO      PTSUNNY   81  50  33 SW8       29.94F
CALDWELL       PTSUNNY   80  53  39 NW5       29.96S
MORRISTOWN     PTSUNNY   81  57  44 SW8       29.96F
SOMERVILLE     CLOUDY    80  58  46 W5        29.94F
SUSSEX         MOSUNNY   78  53  41 S3        29.96F
ANDOVER          N/A     77  55  46 SW3       29.97F
TRENTON        CLOUDY    79  60  52 S5        29.95F
MILLVILLE      PTSUNNY   77  61  57 CALM      29.97S
ATLANTIC CITY  PTSUNNY   75  60  59 S7        29.97F
WRIGHTSTOWN    PTSUNNY   80  61  51 S5        29.93F
TOMS RIVER     PTSUNNY   79  57  47 S6        29.97F
BELMAR         PTSUNNY   75  59  57 S7        29.97S
$$

PAZ047>061-062-071-032200-
EASTERN PENNSYLVANIA

CITY           SKY/WX    TMP DP  RH WIND       PRES   REMARKS
PHILADELPHIA   PTSUNNY   82  61  48 S6        29.95F
ALLENTOWN      PTSUNNY   80  57  45 S6        29.96S
SCRANTON       MOSUNNY   80  54  40 VRB3      29.96F
$$

CTZ002-004>006-009-010-012-RIZ004-006-007-MAZ004-011-015-032200-
SOUTHERN NEW ENGLAND
 IN CT

CITY           SKY/WX    TMP DP  RH WIND       PRES   REMARKS
BRADLEY INTL   MOSUNNY   79  49  34 SW7       29.95S
HARTFORD       SUNNY     79  50  36 SE12      29.95F
DANBURY        SUNNY     76  48  37 S5        29.99S
WTRBRY/OXFORD  SUNNY     75  50  41 W5        30.01S
BRIDGEPORT     MOSUNNY   76  50  40 S8        29.97S
MERIDEN        SUNNY     78  54  43 SW7       29.96F
NEW HAVEN      PTSUNNY   74  55  51 SW5       29.97F
CHESTER        FAIR      75  54  46 S7        29.99S
GROTON         SUNNY     73  54  51 SW8       29.97S
WILLIMANTIC    SUNNY     78  52  40 W8        29.97S

 IN RI

CITY           SKY/WX    TMP DP  RH WIND       PRES   REMARKS
PROVIDENCE     PTSUNNY   77  57  50 SE12      29.96S
BLOCK ISLAND   SUNNY     73  57  56 S9        29.98S
WESTERLY       SUNNY     74  51  44 S12       29.98S

 IN MA

CITY           SKY/WX    TMP DP  RH WIND       PRES   REMARKS
BOSTON         MOSUNNY   72  53  51 SE12      29.95S
WORCESTER      SUNNY     76  46  34 W6        29.99S
WESTFIELD      SUNNY     78  52  40 S6        29.95S
PROVINCETOWN   SUNNY     82  21  10 SW8       29.97R
NANTUCKET      SUNNY     72  51  47 SE9       29.97S
$$

ANZ330-335-338-340-345-350-353-355-032200-
COASTAL MARINE OBSERVATIONS


STATION/POSITION TIME  SKY/WX   TEMP    WIND        PRES    VSBY  WAVE
                                AIR SEA DIR/SP/G                  HT/PER
                 (UTC)          (F)     (DEG/KT/KT) (MB)    (MI)  (FT/S)
NY HARB ENTRANCE 2050            72 70  180/  8/ 10 1014.5          2/ 8
4S FIRE IS       2003               72                N/A           3/ 7
20S FIRE ISLAND  2050            70 71  180/  4/  6 1014.9          3/ 8
GREAT SOUTH BAY  2015            72 77  230/ 12/ 14   N/A
23SW MTP         2050            69 70  160/  4/  6 1015.2          3/ 8
HUDSON CANYON    NOT AVBL
KINGS POINT      2000            80 66   20/  3/  5 1014.0
CENTRAL LI SOUND NOT AVBL
EASTERN LI SOUND 2000            70 65  200/  6/  6   N/A
ROBBINS REEF     2000            77     160/ 11/ 12 1013.4
$$


>>>>>>>>>>>>>>>>>>>>>>>>>>>> KEY <<<<<<<<<<<<<<<<<<<<<<<<<<<
>                                                          <
>     SKY/WX - SKY CONDITION/PRESENT WEATHER               <
>     TMP    - TEMPERATURE IN FAHRENHEIT                   <
>     DP     - DEWPOINT IN FAHRENHEIT                      <
>     RH     - RELATIVE HUMIDITY IN PERCENT                <
>     WIND   - DIRECTION AND SPEED IN MPH                  <
>     PRES   - MEAN SEA LEVEL PRESSURE IN INCHES OF HG     <
>     WCI    - WIND CHILL INDEX                            <
>     VSB    - VISIBILITY IN MILES                         <
>     HX     - HEAT INDEX                                  <
>     TC     - TEMPERATURE IN CELSIUS                      <
>     VRB    - VARIABLE WIND DIRECTION                     <
>                                                          <
>>>>>>>>>>>>>>>>>>>>>>>>>>>> KEY <<<<<<<<<<<<<<<<<<<<<<<<<<<




USA.gov is the U.S. government's official web portal to all federal, state and local government web resources and services.